N9XTN-3 Weather Reports


time (UTC)temp
F
wind
direction
speed
knots
gust
knots
rain 1hr
in
rain 24hr
in
rain mn
in
humidity
%
barometer
mb
20260507105516 42 158 2.6 4.3 0.00 0.00 0.00 83 1012.1
20260507105016 42 158 2.6 5.2 0.00 0.00 0.00 83 1012.2
20260507104517 42 158 3.5 4.3 0.00 0.00 0.00 83 1012.1
20260507104016 42 158 2.6 5.2 0.00 0.00 0.00 83 1012.1
20260507103516 42 158 1.7 4.3 0.00 0.00 0.00 83 1012.1
20260507103016 42 158 1.7 4.3 0.00 0.00 0.00 82 1012.0
20260507102537 42 158 2.6 5.2 0.00 0.00 0.00 82 1012.0
20260507102016 42 158 2.6 5.2 0.00 0.00 0.00 82 1012.1
20260507101517 43 180 2.6 4.3 0.00 0.00 0.00 82 1012.2
20260507101016 43 180 3.5 5.2 0.00 0.00 0.00 82 1012.3
20260507100516 43 180 3.5 5.2 0.00 0.00 0.00 81 1012.3
20260507100016 43 180 2.6 5.2 0.00 0.00 0.00 81 1012.4
20260507095516 43 158 4.3 6.1 0.00 0.00 0.00 81 1012.3
20260507095017 43 180 4.3 7.0 0.00 0.00 0.00 81 1012.3
20260507094516 43 158 4.3 7.0 0.00 0.00 0.00 81 1012.2
20260507094016 43 158 4.3 5.2 0.00 0.00 0.00 81 1012.3
20260507093516 43 158 4.3 7.0 0.00 0.00 0.00 81 1012.3
20260507093017 43 158 4.3 5.2 0.00 0.00 0.00 80 1012.3
20260507092517 43 158 4.3 6.1 0.00 0.00 0.00 79 1012.4
20260507092016 43 158 5.2 7.8 0.00 0.00 0.00 79 1012.4
20260507091516 43 158 5.2 7.0 0.00 0.00 0.00 80 1012.4
20260507091016 43 158 4.3 7.0 0.00 0.00 0.00 79 1012.5
20260507090557 43 158 4.3 7.8 0.00 0.00 0.00 79 1012.5
20260507090036 43 158 4.3 6.1 0.00 0.00 0.00 78 1012.6
20260507085517 43 158 4.3 6.1 0.00 0.00 0.00 77 1012.7
20260507085016 43 158 4.3 5.2 0.00 0.00 0.00 76 1012.8
20260507084517 44 158 3.5 5.2 0.00 0.00 0.00 76 1012.8
20260507084016 44 158 3.5 5.2 0.00 0.00 0.00 75 1012.9
20260507083517 44 203 1.7 4.3 0.00 0.00 0.00 74 1013.0
20260507083017 45 203 1.7 2.6 0.00 0.00 0.00 73 1013.2
20260507082517 45 203 1.7 5.2 0.00 0.00 0.00 73 1013.1
20260507082017 45 203 1.7 3.5 0.00 0.00 0.00 72 1013.2
20260507081516 45 180 2.6 5.2 0.00 0.00 0.00 72 1013.4
20260507081016 45 203 2.6 5.2 0.00 0.00 0.00 71 1013.4
20260507080516 45 203 2.6 4.3 0.00 0.00 0.00 71 1013.4
20260507080016 45 203 2.6 4.3 0.00 0.00 0.00 70 1013.5
20260507075516 45 203 2.6 4.3 0.00 0.00 0.00 69 1013.4
20260507075016 45 203 3.5 5.2 0.00 0.00 0.00 69 1013.5
20260507074557 45 203 2.6 4.3 0.00 0.00 0.00 68 1013.5
20260507074016 45 180 1.7 4.3 0.00 0.00 0.00 68 1013.6
20260507073517 45 180 2.6 4.3 0.00 0.00 0.00 68 1013.7
20260507073016 45 180 2.6 3.5 0.00 0.00 0.00 67 1013.7
20260507072517 45 203 2.6 5.2 0.00 0.00 0.00 67 1013.8
20260507072037 45 203 2.6 4.3 0.00 0.00 0.00 66 1013.9
20260507071516 46 203 2.6 4.3 0.00 0.00 0.00 65 1013.9
20260507071016 46 203 3.5 5.2 0.00 0.00 0.00 64 1014.1
20260507070517 46 203 2.6 6.1 0.00 0.00 0.00 63 1014.1
20260507070016 46 203 2.6 4.3 0.00 0.00 0.00 63 1014.1
20260507065517 46 203 2.6 4.3 0.00 0.00 0.00 62 1014.0
20260507065016 46 203 3.5 5.2 0.00 0.00 0.00 62 1014.1
20260507064516 46 203 2.6 6.1 0.00 0.00 0.00 63 1014.2
20260507064016 46 203 1.7 3.5 0.00 0.00 0.00 62 1014.3
20260507063516 46 203 1.7 4.3 0.00 0.00 0.00 61 1014.3
20260507063016 46 203 0.9 2.6 0.00 0.00 0.00 60 1014.3
20260507062537 46 203 0.9 2.6 0.00 0.00 0.00 59 1014.4
20260507062016 46 203 1.7 3.5 0.00 0.00 0.00 59 1014.4
20260507061517 47 180 1.7 3.5 0.00 0.00 0.00 57 1014.4
20260507061016 47 180 1.7 3.5 0.00 0.00 0.00 57 1014.6
20260507060516 47 180 2.6 4.3 0.00 0.00 0.00 56 1014.6
20260507060017 47 180 2.6 4.3 0.00 0.00 0.00 55 1014.7
20260507055517 46 180 2.6 4.3 0.00 0.00 0.00 55 1014.6
20260507055016 46 135 1.7 4.3 0.00 0.00 0.00 57 1014.6
20260507054516 47 135 0.9 4.3 0.00 0.00 0.00 58 1014.6
20260507054016 47 135 0.9 1.7 0.00 0.00 0.00 59 1014.7
20260507053537 47 135 0.9 3.5 0.00 0.00 0.00 60 1014.6
20260507053016 47 135 0.9 3.5 0.00 0.00 0.00 63 1014.7
20260507052517 47 135 0.9 3.5 0.00 0.00 0.00 67 1014.8
20260507052016 47 135 0.9 3.5 0.00 0.00 0.00 69 1014.9
20260507051517 47 135 1.7 3.5 0.00 0.00 0.00 66 1014.9
20260507051016 47 135 0.9 3.5 0.00 0.00 0.00 63 1014.8
20260507050536 47 135 1.7 3.5 0.00 0.00 0.00 63 1014.7
20260507050017 47 135 1.7 3.5 0.00 0.00 0.00 64 1014.7
20260507045516 47 135 2.6 4.3 0.00 0.00 0.00 67 1014.7
20260507045017 47 135 0.9 3.5 0.00 0.00 0.00 70 1014.8
20260507044517 47 135 0.9 1.7 0.00 0.00 0.00 67 1014.7
20260507044037 47 135 0.9 1.7 0.00 0.00 0.00 64 1014.7
20260507043557 47 135 0.9 3.5 0.00 0.00 0.00 66 1014.8
20260507043016 47 135 2.6 4.3 0.00 0.00 0.00 67 1014.9
20260507042516 46 135 1.7 4.3 0.00 0.00 0.00 66 1014.9
20260507042017 45 135 1.7 3.5 0.00 0.00 0.00 63 1014.9
20260507041516 45 135 1.7 4.3 0.00 0.00 0.00 62 1014.8
20260507041017 45 135 0.9 3.5 0.00 0.00 0.00 62 1014.8
20260507040519 45 0.0 0.0 0.00 0.00 0.00 62 1014.9
20260507040017 45 0.0 0.0 0.00 0.00 0.00 62 1014.9
20260507035516 45 0.0 0.0 0.00 0.00 0.00 62 1014.9
20260507035038 45 0.0 0.0 0.00 0.00 0.00 61 1015.0
20260507034516 45 0.0 0.0 0.00 0.00 0.00 61 1015.0
20260507034017 46 0.0 0.0 0.00 0.00 0.00 60 1015.0
20260507033516 46 0.0 0.0 0.00 0.00 0.00 56 1015.1
20260507033017 47 0.0 0.0 0.00 0.00 0.00 51 1015.1
20260507032517 47 0.0 0.0 0.00 0.00 0.00 50 1015.2
20260507032017 48 0.0 1.7 0.00 0.00 0.00 49 1015.2
20260507031516 48 135 0.9 3.5 0.00 0.00 0.00 48 1015.3
20260507031016 48 135 1.7 3.5 0.00 0.00 0.00 49 1015.2
20260507030536 48 135 0.9 4.3 0.00 0.00 0.00 50 1015.2
20260507030037 48 0.0 0.9 0.00 0.00 0.00 43 1015.2
20260507025516 49 0.0 0.0 0.00 0.00 0.00 44 1015.2
20260507025016 49 0.0 0.0 0.00 0.00 0.00 46 1015.2
20260507024517 49 68 0.9 0.9 0.00 0.00 0.00 46 1015.2
20260507024016 49 68 0.9 1.7 0.00 0.00 0.00 45 1015.2
20260507023657 49 0.0 0.0 0.00 0.00 0.00 42 1015.2
20260507023017 50 68 0.9 0.9 0.00 0.00 0.00 41 1015.1
20260507022517 50 68 0.9 1.7 0.00 0.00 0.00 42 1015.0
20260507022036 50 0.0 0.0 0.00 0.00 0.00 41 1015.0
20260507021517 50 68 1.7 3.5 0.00 0.00 0.00 42 1015.0
20260507021037 50 68 1.7 4.3 0.00 0.00 0.00 42 1014.9
20260507020517 51 0.0 0.0 0.00 0.00 0.00 39 1014.8
20260507020037 51 0.0 0.0 0.00 0.00 0.00 39 1014.8
20260507015516 52 0.0 0.0 0.00 0.00 0.00 39 1014.7
20260507015037 52 0.0 0.0 0.00 0.00 0.00 38 1014.8
20260507014516 52 0.0 0.0 0.00 0.00 0.00 38 1014.8
20260507014016 52 0.0 0.0 0.00 0.00 0.00 38 1014.8
20260507013537 53 0.0 0.0 0.00 0.00 0.00 38 1014.8
20260507013017 53 0.0 0.0 0.00 0.00 0.00 38 1014.8
20260507012517 54 0.0 0.0 0.00 0.00 0.00 37 1014.8
20260507012016 55 0.0 0.0 0.00 0.00 0.00 35 1014.8
20260507011517 56 0.0 0.0 0.00 0.00 0.00 36 1014.8
20260507011016 56 0.0 0.0 0.00 0.00 0.00 34 1014.9
20260507010516 57 0.0 0.9 0.00 0.00 0.00 32 1014.9
20260507010037 58 315 0.9 3.5 0.00 0.00 0.00 30 1015.0
20260507005516 58 293 0.9 2.6 0.00 0.00 0.00 29 1014.8
20260507005016 59 293 1.7 3.5 0.00 0.00 0.00 29 1014.8
20260507004517 59 293 2.6 3.5 0.00 0.00 0.00 28 1014.9
20260507004017 59 315 2.6 4.3 0.00 0.00 0.00 27 1014.9
20260507003536 60 315 4.3 7.0 0.00 0.00 0.00 26 1014.9
20260507003017 60 293 4.3 7.8 0.00 0.00 0.00 26 1014.9
20260507002516 60 293 2.6 4.3 0.00 0.00 0.00 27 1014.9
20260507002017 60 293 4.3 7.0 0.00 0.00 0.00 26 1015.0
20260507001517 60 293 3.5 9.6 0.00 0.00 0.00 26 1015.0
20260507001017 60 270 5.2 7.8 0.00 0.00 0.00 27 1015.0
20260507000517 60 293 4.3 7.8 0.00 0.00 0.00 27 1015.1
20260507000017 60 338 6.1 8.7 0.00 0.00 0.00 26 1015.1
20260506235517 60 315 4.3 7.8 0.00 0.00 0.00 26 1015.2
20260506235016 60 315 4.3 10.4 0.00 0.00 0.00 26 1015.2
20260506234517 60 293 4.3 10.4 0.00 0.00 0.00 26 1015.2
20260506234017 60 293 4.3 7.0 0.00 0.00 0.00 27 1015.3
20260506233516 60 293 4.3 7.8 0.00 0.00 0.00 26 1015.3
20260506233017 60 270 4.3 7.8 0.00 0.00 0.00 26 1015.3
20260506232517 60 338 5.2 12.2 0.00 0.00 0.00 26 1015.2
20260506232057 60 293 6.1 12.2 0.00 0.00 0.00 26 1015.2
20260506231537 60 338 6.1 11.3 0.00 0.00 0.00 26 1015.3
20260506231017 60 293 4.3 10.4 0.00 0.00 0.00 27 1015.3
20260506230517 60 338 5.2 9.6 0.00 0.00 0.00 26 1015.4
20260506230057 60 293 4.3 7.8 0.00 0.00 0.00 27 1015.4
20260506225517 60 270 5.2 10.4 0.00 0.00 0.00 26 1015.6
20260506225016 60 293 3.5 7.0 0.00 0.00 0.00 27 1015.5
20260506224516 60 270 5.2 11.3 0.00 0.00 0.00 27 1015.6
20260506224016 61 248 2.6 5.2 0.00 0.00 0.00 31 1015.6
20260506223537 61 0 4.3 8.7 0.00 0.00 0.00 25 1015.6
20260506223017 61 338 5.2 8.7 0.00 0.00 0.00 26 1015.8
20260506222537 61 338 6.1 9.6 0.00 0.00 0.00 26 1015.9
20260506222019 60 338 7.8 15.6 0.00 0.00 0.00 26 1015.9
20260506221517 61 338 7.8 13.9 0.00 0.00 0.00 25 1015.9
20260506221017 61 270 6.1 13.0 0.00 0.00 0.00 25 1016.0
20260506220517 61 270 6.1 9.6 0.00 0.00 0.00 26 1016.1
20260506220017 61 270 6.1 12.2 0.00 0.00 0.00 26 1016.1
20260506215517 61 270 7.0 15.6 0.00 0.00 0.00 25 1016.2
20260506215017 61 315 5.2 12.2 0.00 0.00 0.00 27 1016.2
20260506214517 61 293 5.2 12.2 0.00 0.00 0.00 27 1016.3
20260506214037 61 293 7.0 11.3 0.00 0.00 0.00 26 1016.3
20260506213517 60 270 3.5 8.7 0.00 0.00 0.00 29 1016.3
20260506213017 59 270 3.5 7.0 0.00 0.00 0.00 29 1016.4
20260506212516 59 315 6.1 13.9 0.00 0.00 0.00 27 1016.5
20260506212037 59 293 7.8 16.5 0.00 0.00 0.00 27 1016.5
20260506211517 59 293 4.3 7.8 0.00 0.00 0.00 27 1016.5
20260506211017 59 293 4.3 8.7 0.00 0.00 0.00 28 1016.7
20260506210517 59 293 5.2 12.2 0.00 0.00 0.00 27 1016.8
20260506210017 60 293 6.1 12.2 0.00 0.00 0.00 28 1016.9
20260506205516 60 0 5.2 11.3 0.00 0.00 0.00 27 1016.9
20260506205017 60 293 7.0 14.8 0.00 0.00 0.00 28 1017.2
20260506204537 60 338 5.2 9.6 0.00 0.00 0.00 26 1017.1
20260506204017 60 315 6.1 11.3 0.00 0.00 0.00 27 1017.2
20260506203517 60 315 7.0 13.0 0.00 0.00 0.00 26 1017.3
20260506203017 61 293 6.1 12.2 0.00 0.00 0.00 27 1017.3
20260506202517 61 270 5.2 9.6 0.00 0.00 0.00 28 1017.4
20260506202017 60 338 7.0 12.2 0.00 0.00 0.00 28 1017.4
20260506201517 60 338 6.1 12.2 0.00 0.00 0.00 30 1017.4
20260506201017 59 315 4.3 8.7 0.00 0.00 0.00 28 1017.4
20260506200517 59 315 5.2 11.3 0.00 0.00 0.00 29 1017.5
20260506200017 59 338 6.1 11.3 0.00 0.00 0.00 28 1017.6
20260506195517 59 270 4.3 12.2 0.00 0.00 0.00 32 1017.5
20260506195017 58 270 6.1 13.0 0.00 0.00 0.00 30 1017.6
20260506194517 58 293 6.1 12.2 0.00 0.00 0.00 30 1017.6
20260506194017 59 293 7.0 13.9 0.00 0.00 0.00 28 1017.7
20260506193517 58 338 7.8 14.8 0.00 0.00 0.00 29 1017.5
20260506193017 58 270 5.2 12.2 0.00 0.00 0.00 30 1017.6
20260506192517 58 338 8.7 14.8 0.00 0.00 0.00 29 1017.8
20260506192037 58 270 6.1 11.3 0.00 0.00 0.00 30 1017.6
20260506191517 59 293 7.8 14.8 0.00 0.00 0.00 30 1017.8
20260506191017 58 338 8.7 18.2 0.00 0.00 0.00 30 1017.8
20260506190517 58 293 6.1 12.2 0.00 0.00 0.00 30 1017.7
20260506190018 58 248 6.1 11.3 0.00 0.00 0.00 32 1017.9
20260506185517 58 293 6.1 11.3 0.00 0.00 0.00 30 1018.0
20260506185017 58 248 5.2 11.3 0.00 0.00 0.00 32 1018.1
20260506184517 57 270 7.8 14.8 0.00 0.00 0.00 32 1018.1
20260506184017 57 270 7.0 12.2 0.00 0.00 0.00 33 1018.1
20260506183517 57 338 7.0 13.0 0.00 0.00 0.00 32 1018.2
20260506183017 57 270 6.1 13.0 0.00 0.00 0.00 31 1018.2
20260506182517 57 293 6.1 11.3 0.00 0.00 0.00 33 1018.3
20260506182017 57 293 7.0 16.5 0.00 0.00 0.00 32 1018.4
20260506181517 57 270 8.7 13.9 0.00 0.00 0.00 32 1018.4
20260506181037 57 270 7.8 14.8 0.00 0.00 0.00 31 1018.4
20260506180517 57 293 6.1 13.0 0.00 0.00 0.00 33 1018.5
20260506180017 57 248 5.2 9.6 0.00 0.00 0.00 34 1018.5
20260506175519 57 270 6.1 10.4 0.00 0.00 0.00 32 1018.7
20260506175020 56 293 6.1 14.8 0.00 0.00 0.00 34 1018.7
20260506174539 56 270 7.0 12.2 0.00 0.00 0.00 32 1018.8
20260506174037 56 293 6.1 13.9 0.00 0.00 0.00 34 1018.8
20260506173517 56 270 7.0 15.6 0.00 0.00 0.00 33 1018.8
20260506173017 56 0 7.0 11.3 0.00 0.00 0.00 31 1018.9
20260506172517 56 338 7.0 15.6 0.00 0.00 0.00 32 1018.9
20260506172017 55 270 5.2 13.0 0.00 0.00 0.00 35 1018.9
20260506171517 55 338 9.6 20.0 0.00 0.00 0.00 32 1018.9
20260506171037 55 293 6.1 12.2 0.00 0.00 0.00 33 1019.1
20260506170517 55 293 6.1 10.4 0.00 0.00 0.00 32 1019.1
20260506170017 55 293 5.2 13.9 0.00 0.00 0.00 35 1019.0
20260506165517 55 293 5.2 11.3 0.00 0.00 0.00 36 1019.1
20260506165017 55 338 7.8 16.5 0.00 0.00 0.00 35 1019.1
20260506164517 55 338 6.1 14.8 0.00 0.00 0.00 33 1019.1
20260506164017 55 0 7.8 14.8 0.00 0.00 0.00 34 1019.2
20260506163517 54 315 6.1 12.2 0.00 0.00 0.00 36 1019.2
20260506163017 54 270 5.2 8.7 0.00 0.00 0.00 37 1019.2
20260506162517 54 270 4.3 9.6 0.00 0.00 0.00 39 1019.2
20260506162017 54 293 5.2 9.6 0.00 0.00 0.00 36 1019.2
20260506161517 53 270 4.3 9.6 0.00 0.00 0.00 38 1019.3
20260506161037 53 23 3.5 8.7 0.00 0.00 0.00 38 1019.3
20260506160517 53 0 4.3 7.8 0.00 0.00 0.00 37 1019.2
20260506160017 53 293 6.1 10.4 0.00 0.00 0.00 38 1019.2
20260506155517 53 248 5.2 12.2 0.00 0.00 0.00 41 1019.1
20260506155017 53 270 5.2 10.4 0.00 0.00 0.00 42 1019.1
20260506154517 52 248 3.5 7.8 0.00 0.00 0.00 41 1019.1
20260506154017 52 270 6.1 10.4 0.00 0.00 0.00 42 1019.2
20260506153517 52 270 5.2 9.6 0.00 0.00 0.00 41 1019.2
20260506153017 52 293 4.3 8.7 0.00 0.00 0.00 41 1019.2
20260506152517 51 270 5.2 13.0 0.00 0.00 0.00 39 1019.3
20260506152017 51 338 4.3 8.7 0.00 0.00 0.00 41 1019.3
20260506151517 51 338 5.2 8.7 0.00 0.00 0.00 40 1019.3
20260506151017 51 338 6.1 11.3 0.00 0.00 0.00 40 1019.3
20260506150517 51 293 4.3 7.8 0.00 0.00 0.00 41 1019.3
20260506150017 51 0 4.3 7.8 0.00 0.00 0.00 41 1019.3
20260506145517 51 270 2.6 6.1 0.00 0.00 0.00 42 1019.3
20260506145037 51 338 4.3 7.8 0.00 0.00 0.00 42 1019.3
20260506144517 51 0 2.6 7.0 0.00 0.00 0.00 43 1019.3
20260506144017 51 293 2.6 6.1 0.00 0.00 0.00 45 1019.4
20260506143517 50 0 1.7 4.3 0.00 0.00 0.00 44 1019.4
20260506143017 50 315 1.7 7.0 0.00 0.00 0.00 45 1019.4
20260506142517 49 293 1.7 3.5 0.00 0.00 0.00 48 1019.3
20260506142017 49 338 2.6 5.2 0.00 0.00 0.00 47 1019.3
20260506141517 48 338 1.7 3.5 0.00 0.00 0.00 49 1019.2
20260506141017 48 0 2.6 4.3 0.00 0.00 0.00 49 1019.1
20260506140517 48 293 2.6 5.2 0.00 0.00 0.00 51 1019.1
20260506140017 47 338 1.7 3.5 0.00 0.00 0.00 51 1019.0
20260506135517 46 338 3.5 6.1 0.00 0.00 0.00 51 1019.0
20260506135017 46 338 3.5 6.1 0.00 0.00 0.00 52 1019.1
20260506134517 46 338 4.3 6.1 0.00 0.00 0.00 52 1019.0
20260506134037 45 0 3.5 6.1 0.00 0.00 0.00 53 1018.9
20260506133537 45 0 4.3 7.0 0.00 0.00 0.00 55 1018.8
20260506133017 45 338 5.2 7.0 0.00 0.00 0.00 54 1018.7
20260506132517 45 338 4.3 7.0 0.00 0.00 0.00 56 1018.7
20260506132037 44 338 6.1 7.8 0.00 0.00 0.00 56 1018.8
20260506131517 44 338 6.1 7.8 0.00 0.00 0.00 58 1018.6
20260506131017 44 338 6.1 7.8 0.00 0.00 0.00 59 1018.7
20260506130517 44 338 3.5 6.1 0.00 0.00 0.00 60 1018.7
20260506130017 43 315 3.5 8.7 0.00 0.00 0.00 61 1018.6
20260506125517 43 338 5.2 8.7 0.00 0.00 0.00 62 1018.6
20260506125017 42 338 4.3 7.0 0.00 0.00 0.00 64 1018.6
20260506124517 41 338 4.3 6.1 0.00 0.00 0.00 66 1018.5
20260506124017 41 338 3.5 6.1 0.00 0.00 0.00 68 1018.4
20260506123517 40 338 3.5 4.3 0.00 0.00 0.00 68 1018.3
20260506123017 40 0 3.5 5.2 0.00 0.00 0.00 68 1018.3
20260506122517 39 0 3.5 4.3 0.00 0.00 0.00 68 1018.2
20260506122037 39 0 2.6 4.3 0.00 0.00 0.00 68 1018.1
20260506121537 39 338 2.6 3.5 0.00 0.00 0.00 68 1018.0
20260506121017 38 0 2.6 3.5 0.00 0.00 0.00 68 1017.9
20260506120517 38 0 2.6 3.5 0.00 0.00 0.00 68 1017.8
20260506120017 37 0 2.6 4.3 0.00 0.00 0.00 68 1017.5
20260506115517 37 338 3.5 4.3 0.00 0.00 0.00 67 1017.5
20260506115017 37 338 3.5 4.3 0.00 0.00 0.00 68 1017.4
20260506114517 37 0 1.7 3.5 0.00 0.00 0.00 68 1017.3
20260506114017 37 315 1.7 2.6 0.00 0.00 0.00 67 1017.2
20260506113517 37 315 0.9 1.7 0.00 0.00 0.00 67 1017.2
20260506113017 36 315 0.9 2.6 0.00 0.00 0.00 67 1017.1
20260506112517 36 315 0.9 2.6 0.00 0.00 0.00 67 1017.2
20260506112017 36 315 0.9 2.6 0.00 0.00 0.00 68 1017.2
20260506111517 36 315 0.9 1.7 0.00 0.00 0.00 68 1017.1
20260506111017 36 315 0.9 1.7 0.00 0.00 0.00 68 1017.1
20260506110517 36 315 1.7 2.6 0.00 0.00 0.00 68 1017.1
20260506110017 36 315 0.9 1.7 0.00 0.00 0.00 69 1017.2